Year,Month,Day,Hour,Minute,Value (Times are PST for temperature in C)
2016,08,06,00,00,14.20
2016,08,06,00,01,14.20
2016,08,06,00,02,14.20
2016,08,06,00,03,14.20
2016,08,06,00,04,14.20
2016,08,06,00,05,14.20
2016,08,06,00,06,14.20
2016,08,06,00,07,14.20
2016,08,06,00,08,14.20
2016,08,06,00,09,14.20
2016,08,06,00,10,14.20
2016,08,06,00,11,14.10
2016,08,06,00,12,14.10
2016,08,06,00,13,14.10
2016,08,06,00,14,14.10
2016,08,06,00,15,14.10
2016,08,06,00,16,14.10
2016,08,06,00,17,14.10
2016,08,06,00,18,14.10
2016,08,06,00,19,14.10
2016,08,06,00,20,14.10
2016,08,06,00,21,14.10
2016,08,06,00,22,14.10
2016,08,06,00,23,14.10
2016,08,06,00,24,14.10
2016,08,06,00,25,14.10
2016,08,06,00,26,14.10
2016,08,06,00,27,14.10
2016,08,06,00,28,14.10
2016,08,06,00,29,14.10
2016,08,06,00,30,14.10
2016,08,06,00,31,14.10
2016,08,06,00,32,14.10
2016,08,06,00,33,14.10
2016,08,06,00,34,14.10
2016,08,06,00,35,14.10
2016,08,06,00,36,14.10
2016,08,06,00,37,14.00
2016,08,06,00,38,14.00
2016,08,06,00,39,14.00
2016,08,06,00,40,14.00
2016,08,06,00,41,14.00
2016,08,06,00,42,14.00
2016,08,06,00,43,14.00
2016,08,06,00,44,14.00
2016,08,06,00,45,14.00
2016,08,06,00,46,14.00
2016,08,06,00,47,14.00
2016,08,06,00,48,14.00
2016,08,06,00,49,14.00
2016,08,06,00,50,14.00
2016,08,06,00,51,14.00
2016,08,06,00,52,14.00
2016,08,06,00,53,14.00
2016,08,06,00,54,13.90
2016,08,06,00,55,13.90
2016,08,06,00,57,13.90
2016,08,06,00,58,13.90
2016,08,06,00,59,13.90
2016,08,06,01,00,13.90
2016,08,06,01,02,13.90
2016,08,06,01,03,13.90
2016,08,06,01,04,13.90
2016,08,06,01,06,13.90
2016,08,06,01,07,13.90
2016,08,06,01,08,13.90
2016,08,06,01,09,13.90
2016,08,06,01,11,13.90
2016,08,06,01,12,13.90
2016,08,06,01,13,13.90
2016,08,06,01,14,13.90
2016,08,06,01,16,13.90
2016,08,06,01,17,13.90
2016,08,06,01,18,13.90
2016,08,06,01,19,13.90
2016,08,06,01,21,13.80
2016,08,06,01,22,13.80
2016,08,06,01,23,13.80
2016,08,06,01,24,13.80
2016,08,06,01,26,13.80
2016,08,06,01,27,13.80
2016,08,06,01,28,13.80
2016,08,06,01,29,13.80
2016,08,06,01,31,13.80
2016,08,06,01,32,13.80
2016,08,06,01,33,13.80
2016,08,06,01,34,13.80
2016,08,06,01,36,13.70
2016,08,06,01,37,13.70
2016,08,06,01,38,13.70
2016,08,06,01,39,13.70
2016,08,06,01,41,13.70
2016,08,06,01,42,13.70
2016,08,06,01,43,13.70
2016,08,06,01,44,13.70
2016,08,06,01,46,13.70
2016,08,06,01,47,13.70
2016,08,06,01,48,13.70
2016,08,06,01,49,13.70
2016,08,06,01,51,13.70
2016,08,06,01,52,13.70
2016,08,06,01,53,13.70
2016,08,06,01,54,13.70
2016,08,06,01,56,13.70
2016,08,06,01,57,13.70
2016,08,06,01,58,13.70
2016,08,06,01,59,13.70
2016,08,06,02,01,13.70
2016,08,06,02,02,13.70
2016,08,06,02,03,13.70
2016,08,06,02,04,13.70
2016,08,06,02,06,13.60
2016,08,06,02,07,13.60
2016,08,06,02,08,13.60
2016,08,06,02,09,13.60
2016,08,06,02,10,13.60
2016,08,06,02,11,13.60
2016,08,06,02,12,13.60
2016,08,06,02,13,13.60
2016,08,06,02,14,13.60
2016,08,06,02,15,13.60
2016,08,06,02,16,13.60
2016,08,06,02,17,13.60
2016,08,06,02,18,13.60
2016,08,06,02,19,13.60
2016,08,06,02,20,13.60
2016,08,06,02,21,13.60
2016,08,06,02,22,13.60
2016,08,06,02,23,13.60
2016,08,06,02,24,13.60
2016,08,06,02,25,13.60
2016,08,06,02,26,13.60
2016,08,06,02,27,13.60
2016,08,06,02,28,13.60
2016,08,06,02,29,13.60
2016,08,06,02,30,13.60
2016,08,06,02,31,13.60
2016,08,06,02,32,13.60
2016,08,06,02,33,13.60
2016,08,06,02,34,13.60
2016,08,06,02,35,13.60
2016,08,06,02,36,13.60
2016,08,06,02,37,13.60
2016,08,06,02,38,13.50
2016,08,06,02,39,13.50
2016,08,06,02,40,13.50
2016,08,06,02,41,13.50
2016,08,06,02,42,13.50
2016,08,06,02,43,13.50
2016,08,06,02,44,13.50
2016,08,06,02,45,13.50
2016,08,06,02,46,13.50
2016,08,06,02,47,13.50
2016,08,06,02,48,13.50
2016,08,06,02,49,13.50
2016,08,06,02,50,13.50
2016,08,06,02,51,13.50
2016,08,06,02,52,13.50
2016,08,06,02,53,13.50
2016,08,06,02,54,13.50
2016,08,06,02,55,13.50
2016,08,06,02,56,13.50
2016,08,06,02,57,13.50
2016,08,06,02,58,13.50
2016,08,06,02,59,13.50
2016,08,06,03,00,13.50
2016,08,06,03,01,13.50
2016,08,06,03,02,13.50
2016,08,06,03,03,13.50
2016,08,06,03,04,13.50
2016,08,06,03,05,13.50
2016,08,06,03,06,13.50
2016,08,06,03,07,13.50
2016,08,06,03,08,13.50
2016,08,06,03,09,13.50
2016,08,06,03,10,13.50
2016,08,06,03,11,13.50
2016,08,06,03,12,13.50
2016,08,06,03,13,13.50
2016,08,06,03,14,13.50
2016,08,06,03,15,13.50
2016,08,06,03,16,13.40
2016,08,06,03,17,13.40
2016,08,06,03,18,13.40
2016,08,06,03,19,13.40
2016,08,06,03,20,13.40
2016,08,06,03,21,13.40
2016,08,06,03,22,13.40
2016,08,06,03,23,13.40
2016,08,06,03,24,13.40
2016,08,06,03,25,13.40
2016,08,06,03,26,13.40
2016,08,06,03,27,13.40
2016,08,06,03,28,13.40
2016,08,06,03,29,13.40
2016,08,06,03,30,13.40
2016,08,06,03,31,13.40
2016,08,06,03,32,13.40
2016,08,06,03,33,13.40
2016,08,06,03,34,13.40
2016,08,06,03,35,13.40
2016,08,06,03,36,13.40
2016,08,06,03,37,13.40
2016,08,06,03,38,13.40
2016,08,06,03,39,13.40
2016,08,06,03,41,13.40
2016,08,06,03,42,13.40
2016,08,06,03,43,13.40
2016,08,06,03,44,13.50
2016,08,06,03,46,13.50
2016,08,06,03,47,13.50
2016,08,06,03,48,13.50
2016,08,06,03,49,13.50
2016,08,06,03,51,13.50
2016,08,06,03,52,13.50
2016,08,06,03,53,13.50
2016,08,06,03,54,13.50
2016,08,06,03,56,13.60
2016,08,06,03,57,13.60
2016,08,06,03,58,13.60
2016,08,06,03,59,13.60
2016,08,06,04,01,13.60
2016,08,06,04,02,13.60
2016,08,06,04,03,13.60
2016,08,06,04,04,13.60
2016,08,06,04,06,13.60
2016,08,06,04,07,13.60
2016,08,06,04,08,13.60
2016,08,06,04,09,13.60
2016,08,06,04,11,13.60
2016,08,06,04,12,13.60
2016,08,06,04,13,13.60
2016,08,06,04,14,13.60
2016,08,06,04,16,13.60
2016,08,06,04,17,13.60
2016,08,06,04,18,13.60
2016,08,06,04,19,13.60
2016,08,06,04,21,13.60
2016,08,06,04,22,13.60
2016,08,06,04,23,13.60
2016,08,06,04,24,13.60
2016,08,06,04,26,13.60
2016,08,06,04,27,13.60
2016,08,06,04,28,13.60
2016,08,06,04,29,13.60
2016,08,06,04,31,13.60
2016,08,06,04,32,13.60
2016,08,06,04,33,13.60
2016,08,06,04,34,13.60
2016,08,06,04,36,13.60
2016,08,06,04,37,13.60
2016,08,06,04,38,13.60
2016,08,06,04,39,13.50
2016,08,06,04,41,13.50
2016,08,06,04,42,13.50
2016,08,06,04,43,13.50
2016,08,06,04,44,13.50
2016,08,06,04,45,13.50
2016,08,06,04,46,13.50
2016,08,06,04,47,13.50
2016,08,06,04,48,13.50
2016,08,06,04,49,13.50
2016,08,06,04,50,13.50
2016,08,06,04,51,13.50
2016,08,06,04,52,13.50
2016,08,06,04,53,13.50
2016,08,06,04,54,13.50
2016,08,06,04,56,13.40
2016,08,06,04,57,13.40
2016,08,06,04,58,13.40
2016,08,06,04,59,13.40
2016,08,06,05,00,13.40
2016,08,06,05,01,13.40
2016,08,06,05,02,13.40
2016,08,06,05,03,13.40
2016,08,06,05,04,13.40
2016,08,06,05,06,13.30
2016,08,06,05,07,13.30
2016,08,06,05,08,13.30
2016,08,06,05,09,13.30
2016,08,06,05,10,13.30
2016,08,06,05,11,13.30
2016,08,06,05,12,13.30
2016,08,06,05,13,13.30
2016,08,06,05,14,13.30
2016,08,06,05,15,13.30
2016,08,06,05,16,13.30
2016,08,06,05,17,13.30
2016,08,06,05,18,13.30
2016,08,06,05,19,13.30
2016,08,06,05,20,13.30
2016,08,06,05,21,13.30
2016,08,06,05,22,13.30
2016,08,06,05,23,13.30
2016,08,06,05,24,13.30
2016,08,06,05,25,13.30
2016,08,06,05,26,13.30
2016,08,06,05,27,13.30
2016,08,06,05,28,13.30
2016,08,06,05,29,13.30
2016,08,06,05,30,13.30
2016,08,06,05,31,13.30
2016,08,06,05,32,13.30
2016,08,06,05,33,13.30
2016,08,06,05,34,13.30
2016,08,06,05,35,13.30
2016,08,06,05,36,13.30
2016,08,06,05,37,13.30
2016,08,06,05,38,13.30
2016,08,06,05,39,13.30
2016,08,06,05,40,13.30
2016,08,06,05,41,13.30
2016,08,06,05,42,13.30
2016,08,06,05,43,13.30
2016,08,06,05,44,13.30
2016,08,06,05,45,13.30
2016,08,06,05,46,13.30
2016,08,06,05,47,13.30
2016,08,06,05,48,13.30
2016,08,06,05,49,13.30
2016,08,06,05,50,13.30
2016,08,06,05,51,13.30
2016,08,06,05,52,13.30
2016,08,06,05,53,13.30
2016,08,06,05,54,13.30
2016,08,06,05,55,13.30
2016,08,06,05,56,13.30
2016,08,06,05,57,13.30
2016,08,06,05,58,13.30
2016,08,06,05,59,13.30
2016,08,06,06,00,13.30
2016,08,06,06,01,13.30
2016,08,06,06,02,13.30
2016,08,06,06,03,13.30
2016,08,06,06,04,13.30
2016,08,06,06,05,13.30
2016,08,06,06,06,13.30
2016,08,06,06,07,13.30
2016,08,06,06,08,13.30
2016,08,06,06,09,13.30
2016,08,06,06,10,13.30
2016,08,06,06,11,13.30
2016,08,06,06,12,13.30
2016,08,06,06,13,13.30
2016,08,06,06,14,13.30
2016,08,06,06,15,13.30
2016,08,06,06,16,13.30
2016,08,06,06,17,13.30
2016,08,06,06,18,13.30
2016,08,06,06,19,13.30
2016,08,06,06,20,13.30
2016,08,06,06,22,13.30
2016,08,06,06,23,13.30
2016,08,06,06,24,13.30
2016,08,06,06,26,13.30
2016,08,06,06,27,13.30
2016,08,06,06,28,13.30
2016,08,06,06,29,13.40
2016,08,06,06,31,13.40
2016,08,06,06,32,13.40
2016,08,06,06,33,13.40
2016,08,06,06,34,13.40
2016,08,06,06,36,13.40
2016,08,06,06,37,13.40
2016,08,06,06,38,13.30
2016,08,06,06,39,13.30
2016,08,06,06,41,13.30
2016,08,06,06,42,13.30
2016,08,06,06,43,13.20
2016,08,06,06,44,13.20
2016,08,06,06,46,13.20
2016,08,06,06,47,13.20
2016,08,06,06,48,13.20
2016,08,06,06,49,13.20
2016,08,06,06,51,13.10
2016,08,06,06,52,13.10
2016,08,06,06,53,13.10
2016,08,06,06,54,13.10
2016,08,06,06,56,13.10
2016,08,06,06,57,13.00
2016,08,06,06,58,13.00
2016,08,06,06,59,13.00
2016,08,06,07,01,12.90
2016,08,06,07,02,12.90
2016,08,06,07,03,12.80
2016,08,06,07,04,12.80
2016,08,06,07,06,12.80
2016,08,06,07,07,12.80
2016,08,06,07,08,12.80
2016,08,06,07,09,12.80
2016,08,06,07,11,12.80
2016,08,06,07,12,12.80
2016,08,06,07,13,12.80
2016,08,06,07,14,12.80
2016,08,06,07,16,12.80
2016,08,06,07,17,12.80
2016,08,06,07,18,12.80
2016,08,06,07,19,12.80
2016,08,06,07,21,12.80
2016,08,06,07,22,12.80
2016,08,06,07,23,12.80
2016,08,06,07,24,12.80
2016,08,06,07,26,12.80
2016,08,06,07,27,12.80
2016,08,06,07,28,12.80
2016,08,06,07,29,12.80
2016,08,06,07,31,12.80
2016,08,06,07,32,12.80
2016,08,06,07,33,12.80
2016,08,06,07,34,12.80
2016,08,06,07,36,12.80
2016,08,06,07,37,12.80
2016,08,06,07,38,12.90
2016,08,06,07,39,12.90
2016,08,06,07,40,12.90
2016,08,06,07,41,12.90
2016,08,06,07,42,12.90
2016,08,06,08,19,13.20
2016,08,06,08,21,13.20
2016,08,06,08,22,13.20
2016,08,06,08,23,13.30
2016,08,06,08,24,13.30
2016,08,06,08,26,13.30
2016,08,06,08,27,13.30
2016,08,06,08,28,13.30
2016,08,06,08,29,13.40
2016,08,06,08,31,13.40
2016,08,06,08,32,13.40
2016,08,06,08,33,13.40
2016,08,06,08,34,13.40
2016,08,06,08,36,13.50
2016,08,06,08,37,13.60
2016,08,06,08,38,13.60
2016,08,06,08,39,13.70
2016,08,06,08,41,13.80
2016,08,06,08,42,13.80
2016,08,06,08,43,13.90
2016,08,06,08,44,14.00
2016,08,06,08,46,14.10
2016,08,06,08,47,14.10
2016,08,06,08,48,14.20
2016,08,06,08,49,14.20
2016,08,06,08,51,14.20
2016,08,06,08,52,14.20
2016,08,06,08,53,14.20
2016,08,06,08,54,14.20
2016,08,06,08,56,14.30
2016,08,06,08,57,14.30
2016,08,06,08,58,14.40
2016,08,06,08,59,14.40
2016,08,06,09,01,14.40
2016,08,06,09,02,14.40
2016,08,06,09,03,14.40
2016,08,06,09,04,14.40
2016,08,06,09,06,14.50
2016,08,06,09,07,14.50
2016,08,06,09,08,14.60
2016,08,06,09,09,14.60
2016,08,06,09,11,14.80
2016,08,06,09,12,14.90
2016,08,06,09,13,14.90
2016,08,06,09,14,15.00
2016,08,06,09,16,15.20
2016,08,06,09,17,15.30
2016,08,06,09,18,15.30
2016,08,06,09,19,15.40
2016,08,06,09,21,15.50
2016,08,06,09,22,15.50
2016,08,06,09,23,15.60
2016,08,06,09,24,15.60
2016,08,06,09,25,15.70
2016,08,06,09,26,15.80
2016,08,06,09,27,15.80
2016,08,06,09,28,15.80
2016,08,06,09,29,15.80
2016,08,06,09,30,15.80
2016,08,06,09,31,15.80
2016,08,06,09,32,15.80
2016,08,06,09,33,15.90
2016,08,06,09,34,15.90
2016,08,06,09,35,15.90
2016,08,06,09,36,16.10
2016,08,06,09,37,16.10
2016,08,06,09,38,16.10
2016,08,06,09,39,16.10
2016,08,06,09,40,16.10
2016,08,06,09,41,16.10
2016,08,06,09,42,16.10
2016,08,06,09,43,16.10
2016,08,06,09,44,16.10
2016,08,06,09,45,16.20
2016,08,06,09,46,16.20
2016,08,06,09,47,16.20
2016,08,06,09,48,16.30
2016,08,06,09,49,16.40
2016,08,06,09,50,16.40
2016,08,06,09,51,16.40
2016,08,06,09,52,16.40
2016,08,06,09,53,16.40
2016,08,06,09,54,16.40
2016,08,06,09,55,16.40
2016,08,06,09,56,16.40
2016,08,06,09,57,16.40
2016,08,06,09,58,16.30
2016,08,06,09,59,16.20
2016,08,06,10,00,16.10
2016,08,06,10,01,15.90
2016,08,06,10,02,15.80
2016,08,06,10,03,15.80
2016,08,06,10,04,15.80
2016,08,06,10,05,15.80
2016,08,06,10,06,15.80
2016,08,06,10,07,15.80
2016,08,06,10,08,15.80
2016,08,06,10,09,15.80
2016,08,06,10,10,15.80
2016,08,06,10,11,15.80
2016,08,06,10,12,15.90
2016,08,06,10,13,15.90
2016,08,06,10,14,16.10
2016,08,06,10,15,16.10
2016,08,06,10,16,16.20
2016,08,06,10,17,16.20
2016,08,06,10,18,16.30
2016,08,06,10,19,16.30
2016,08,06,10,20,16.30
2016,08,06,10,21,16.40
2016,08,06,10,22,16.40
2016,08,06,10,23,16.40
2016,08,06,10,24,16.40
2016,08,06,10,25,16.40
2016,08,06,10,26,16.60
2016,08,06,10,27,16.60
2016,08,06,10,28,16.60
2016,08,06,10,29,16.40
2016,08,06,11,19,16.70
2016,08,06,11,21,16.70
2016,08,06,11,22,16.80
2016,08,06,11,23,16.90
2016,08,06,11,24,17.00
2016,08,06,11,26,17.20
2016,08,06,11,27,17.30
2016,08,06,11,28,17.30
2016,08,06,11,29,17.40
2016,08,06,11,31,17.50
2016,08,06,11,32,17.60
2016,08,06,11,33,17.70
2016,08,06,11,34,17.70
2016,08,06,11,36,17.80
2016,08,06,11,37,17.80
2016,08,06,11,38,17.80
2016,08,06,11,39,17.80
2016,08,06,11,41,17.70
2016,08,06,11,42,17.60
2016,08,06,11,43,17.60
2016,08,06,11,44,17.50
2016,08,06,11,46,17.40
2016,08,06,11,47,17.40
2016,08,06,11,48,17.40
2016,08,06,11,49,17.50
2016,08,06,11,51,17.60
2016,08,06,11,52,17.60
2016,08,06,11,53,17.60
2016,08,06,11,54,17.60
2016,08,06,11,56,17.60
2016,08,06,11,57,17.60
2016,08,06,11,58,17.60
2016,08,06,11,59,17.60
2016,08,06,12,01,17.60
2016,08,06,12,02,17.60
2016,08,06,12,03,17.50
2016,08,06,12,04,17.50
2016,08,06,12,06,17.50
2016,08,06,12,07,17.50
2016,08,06,12,08,17.50
2016,08,06,12,09,17.50
2016,08,06,12,11,17.40
2016,08,06,12,12,17.40
2016,08,06,12,13,17.40
2016,08,06,12,14,17.40
2016,08,06,12,16,17.40
2016,08,06,12,17,17.40
2016,08,06,12,18,17.40
2016,08,06,12,19,17.40
2016,08,06,12,21,17.60
2016,08,06,12,22,17.70
2016,08,06,12,23,17.70
2016,08,06,12,24,17.80
2016,08,06,12,25,17.80
2016,08,06,12,26,17.90
2016,08,06,12,27,17.90
2016,08,06,12,28,17.90
2016,08,06,12,29,18.10
2016,08,06,12,30,18.10
2016,08,06,12,31,18.10
2016,08,06,12,32,18.10
2016,08,06,12,33,17.90
2016,08,06,12,34,17.90
2016,08,06,12,36,17.80
2016,08,06,12,37,17.80
2016,08,06,12,38,17.70
2016,08,06,12,39,17.70
2016,08,06,12,40,17.50
2016,08,06,12,41,17.40
2016,08,06,12,42,17.30
2016,08,06,12,43,17.30
2016,08,06,12,44,17.20
2016,08,06,12,45,17.10
2016,08,06,12,46,17.00
2016,08,06,12,47,17.00
2016,08,06,12,48,16.90
2016,08,06,12,49,16.90
2016,08,06,12,50,16.90
2016,08,06,12,51,16.90
2016,08,06,12,52,16.90
2016,08,06,12,53,16.90
2016,08,06,12,54,17.00
2016,08,06,12,55,17.00
2016,08,06,12,56,17.10
2016,08,06,12,57,17.20
2016,08,06,12,58,17.20
2016,08,06,12,59,17.20
2016,08,06,13,00,17.30
2016,08,06,13,01,17.30
2016,08,06,13,02,17.30
2016,08,06,13,03,17.30
2016,08,06,13,04,17.30
2016,08,06,13,05,17.30
2016,08,06,13,06,17.30
2016,08,06,13,07,17.30
2016,08,06,13,08,17.30
2016,08,06,13,09,17.30
2016,08,06,13,10,17.30
2016,08,06,13,11,17.30
2016,08,06,13,12,17.30
2016,08,06,13,13,17.30
2016,08,06,13,14,17.30
2016,08,06,13,15,17.20
2016,08,06,13,16,17.20
2016,08,06,13,17,17.20
2016,08,06,13,18,17.20
2016,08,06,13,19,17.30
2016,08,06,13,20,17.30
2016,08,06,13,21,17.30
2016,08,06,13,22,17.30
2016,08,06,13,23,17.30
2016,08,06,13,24,17.30
2016,08,06,13,25,17.30
2016,08,06,13,26,17.30
2016,08,06,13,27,17.30
2016,08,06,13,28,17.40
2016,08,06,13,29,17.50
2016,08,06,13,30,17.50
2016,08,06,13,31,17.60
2016,08,06,13,32,17.60
2016,08,06,13,33,17.70
2016,08,06,13,34,17.70
2016,08,06,13,35,17.80
2016,08,06,13,36,17.80
2016,08,06,13,37,17.90
2016,08,06,13,38,17.90
2016,08,06,13,39,17.90
2016,08,06,13,40,18.10
2016,08,06,13,41,18.10
2016,08,06,13,42,18.20
2016,08,06,13,43,18.20
2016,08,06,13,44,18.20
2016,08,06,13,45,18.30
2016,08,06,13,46,18.30
2016,08,06,13,47,18.40
2016,08,06,13,48,18.40
2016,08,06,13,49,18.50
2016,08,06,13,50,18.50
2016,08,06,13,51,18.50
2016,08,06,13,52,18.60
2016,08,06,13,54,18.60
2016,08,06,13,55,18.70
2016,08,06,13,57,18.70
2016,08,06,13,58,18.70
2016,08,06,13,59,18.60
2016,08,06,14,00,18.60
2016,08,06,14,02,18.50
2016,08,06,14,03,18.50
2016,08,06,14,04,18.50
2016,08,06,14,06,18.40
2016,08,06,14,07,18.40
2016,08,06,14,08,18.40
2016,08,06,14,09,18.40
2016,08,06,14,11,18.40
2016,08,06,14,12,18.40
2016,08,06,14,13,18.40
2016,08,06,14,14,18.50
2016,08,06,14,16,18.50
2016,08,06,14,17,18.40
2016,08,06,14,18,18.40
2016,08,06,14,19,18.40
2016,08,06,14,21,18.40
2016,08,06,14,22,18.40
2016,08,06,14,23,18.50
2016,08,06,14,24,18.40
2016,08,06,14,26,18.40
2016,08,06,14,27,18.40
2016,08,06,14,28,18.40
2016,08,06,14,29,18.30
2016,08,06,14,31,18.30
2016,08,06,14,32,18.30
2016,08,06,14,33,18.30
2016,08,06,14,34,18.30
2016,08,06,14,36,18.30
2016,08,06,14,37,18.30
2016,08,06,14,38,18.30
2016,08,06,14,39,18.30
2016,08,06,14,41,18.40
2016,08,06,14,42,18.50
2016,08,06,14,43,18.50
2016,08,06,14,44,18.60
2016,08,06,14,46,18.80
2016,08,06,14,47,18.90
2016,08,06,14,48,18.90
2016,08,06,14,49,19.10
2016,08,06,14,51,19.10
2016,08,06,14,52,19.10
2016,08,06,14,53,19.10
2016,08,06,14,54,19.10
2016,08,06,14,56,19.10
2016,08,06,14,57,18.90
2016,08,06,14,58,18.90
2016,08,06,14,59,18.90
2016,08,06,15,00,18.90
2016,08,06,15,01,18.80
2016,08,06,15,02,18.70
2016,08,06,15,03,18.70
2016,08,06,15,04,18.60
2016,08,06,15,06,18.60
2016,08,06,15,07,18.60
2016,08,06,15,08,18.50
2016,08,06,15,09,18.50
2016,08,06,15,10,18.50
2016,08,06,15,11,18.50
2016,08,06,15,12,18.40
2016,08,06,15,13,18.30
2016,08,06,15,14,18.30
2016,08,06,15,15,18.30
2016,08,06,15,16,18.30
2016,08,06,15,17,18.20
2016,08,06,15,18,18.20
2016,08,06,15,19,18.20
2016,08,06,15,20,18.20
2016,08,06,15,21,18.10
2016,08,06,15,22,18.10
2016,08,06,15,23,18.10
2016,08,06,15,24,18.10
2016,08,06,15,25,18.10
2016,08,06,15,26,18.10
2016,08,06,15,27,17.90
2016,08,06,15,28,17.90
2016,08,06,15,29,18.10
2016,08,06,15,30,18.10
2016,08,06,15,31,18.10
2016,08,06,15,32,18.10
2016,08,06,15,33,18.10
2016,08,06,15,34,18.20
2016,08,06,15,35,18.20
2016,08,06,15,36,18.20
2016,08,06,15,37,18.10
2016,08,06,15,38,18.10
2016,08,06,15,39,18.10
2016,08,06,15,40,17.90
2016,08,06,15,41,17.90
2016,08,06,15,42,17.80
2016,08,06,15,43,17.70
2016,08,06,15,44,17.60
2016,08,06,15,45,17.60
2016,08,06,15,46,17.50
2016,08,06,15,47,17.50
2016,08,06,15,48,17.40
2016,08,06,15,49,17.40
2016,08,06,15,50,17.30
2016,08,06,15,51,17.30
2016,08,06,15,52,17.30
2016,08,06,15,53,17.30
2016,08,06,15,54,17.30
2016,08,06,15,55,17.30
2016,08,06,15,56,17.30
2016,08,06,15,57,17.30
2016,08,06,15,58,17.40
2016,08,06,15,59,17.40
2016,08,06,16,00,17.40
2016,08,06,16,01,17.40
2016,08,06,16,02,17.40
2016,08,06,16,03,17.40
2016,08,06,16,04,17.40
2016,08,06,16,05,17.40
2016,08,06,16,06,17.40
2016,08,06,16,07,17.40
2016,08,06,16,08,17.30
2016,08,06,16,09,17.30
2016,08,06,16,10,17.20
2016,08,06,16,11,17.10
2016,08,06,16,12,17.00
2016,08,06,16,13,16.90
2016,08,06,16,14,16.80
2016,08,06,16,15,16.80
2016,08,06,16,16,16.70
2016,08,06,16,17,16.70
2016,08,06,16,18,16.70
2016,08,06,16,19,16.70
2016,08,06,16,20,16.70
2016,08,06,16,21,16.70
2016,08,06,16,22,16.70
2016,08,06,16,23,16.60
2016,08,06,16,24,16.60
2016,08,06,16,25,16.60
2016,08,06,16,26,16.40
2016,08,06,16,27,16.40
2016,08,06,16,28,16.40
2016,08,06,16,29,16.40
2016,08,06,16,30,16.30
2016,08,06,16,31,16.30
2016,08,06,16,33,16.30
2016,08,06,16,34,16.20
2016,08,06,16,35,16.20
2016,08,06,16,37,16.20
2016,08,06,16,38,16.20
2016,08,06,16,39,16.10
2016,08,06,16,41,16.10
2016,08,06,16,42,16.10
2016,08,06,16,43,16.10
2016,08,06,16,44,16.10
2016,08,06,16,46,16.10
2016,08,06,16,47,16.10
2016,08,06,16,48,16.10
2016,08,06,16,49,15.90
2016,08,06,16,51,15.90
2016,08,06,16,52,15.90
2016,08,06,16,53,15.80
2016,08,06,16,54,15.80
2016,08,06,16,56,15.80
2016,08,06,16,57,15.80
2016,08,06,16,58,15.80
2016,08,06,16,59,15.70
2016,08,06,17,01,15.60
2016,08,06,17,02,15.60
2016,08,06,17,03,15.60
2016,08,06,17,04,15.50
2016,08,06,17,06,15.40
2016,08,06,17,07,15.40
2016,08,06,17,08,15.40
2016,08,06,17,09,15.30
2016,08,06,17,11,15.20
2016,08,06,17,12,15.20
2016,08,06,17,13,15.20
2016,08,06,17,14,15.20
2016,08,06,17,16,15.10
2016,08,06,17,17,15.10
2016,08,06,17,18,15.10
2016,08,06,17,19,15.20
2016,08,06,17,21,15.20
2016,08,06,17,22,15.30
2016,08,06,17,23,15.30
2016,08,06,17,24,15.30
2016,08,06,17,26,15.50
2016,08,06,17,27,15.60
2016,08,06,17,28,15.70
2016,08,06,17,29,15.70
2016,08,06,17,31,15.80
2016,08,06,17,32,15.90
2016,08,06,17,33,15.90
2016,08,06,17,34,16.10
2016,08,06,17,36,16.10
2016,08,06,17,37,16.20
2016,08,06,17,38,16.20
2016,08,06,17,39,16.30
2016,08,06,17,41,16.40
2016,08,06,17,42,16.40
2016,08,06,17,43,16.40
2016,08,06,17,44,16.40
2016,08,06,17,45,16.60
2016,08,06,17,46,16.60
2016,08,06,17,47,16.70
2016,08,06,17,48,16.70
2016,08,06,17,49,16.70
2016,08,06,17,50,16.70
2016,08,06,17,51,16.80
2016,08,06,17,52,16.80
2016,08,06,17,53,16.90
2016,08,06,17,54,16.90
2016,08,06,17,55,16.90
2016,08,06,17,56,16.90
2016,08,06,17,57,17.00
2016,08,06,17,58,17.00
2016,08,06,17,59,17.00
2016,08,06,18,00,17.00
2016,08,06,18,01,17.10
2016,08,06,18,02,17.10
2016,08,06,18,03,17.10
2016,08,06,18,04,17.20
2016,08,06,18,06,17.20
2016,08,06,18,07,17.20
2016,08,06,18,08,17.20
2016,08,06,18,09,17.30
2016,08,06,18,10,17.30
2016,08,06,18,11,17.30
2016,08,06,18,12,17.30
2016,08,06,18,13,17.30
2016,08,06,18,14,17.40
2016,08,06,18,15,17.50
2016,08,06,18,16,17.50
2016,08,06,18,17,17.60
2016,08,06,18,18,17.70
2016,08,06,18,19,17.80
2016,08,06,18,20,17.80
2016,08,06,18,21,17.90
2016,08,06,18,22,17.90
2016,08,06,18,23,17.90
2016,08,06,18,24,17.90
2016,08,06,18,25,17.90
2016,08,06,18,26,18.10
2016,08,06,18,27,18.10
2016,08,06,18,28,18.20
2016,08,06,18,29,18.20
2016,08,06,18,30,18.20
2016,08,06,18,31,18.20
2016,08,06,18,32,18.20
2016,08,06,18,33,18.20
2016,08,06,18,34,18.20
2016,08,06,18,35,18.20
2016,08,06,18,36,18.20
2016,08,06,18,37,18.20
2016,08,06,18,38,18.20
2016,08,06,18,39,18.20
2016,08,06,18,40,18.20
2016,08,06,18,41,18.20
2016,08,06,18,42,18.20
2016,08,06,18,43,18.10
2016,08,06,18,44,18.10
2016,08,06,18,45,18.10
2016,08,06,18,46,18.10
2016,08,06,18,47,18.10
2016,08,06,18,48,17.90
2016,08,06,18,49,17.90
2016,08,06,18,50,17.90
2016,08,06,18,51,17.90
2016,08,06,18,52,17.90
2016,08,06,18,53,17.90
2016,08,06,18,54,17.80
2016,08,06,18,55,17.80
2016,08,06,18,56,17.80
2016,08,06,18,57,17.70
2016,08,06,18,58,17.70
2016,08,06,18,59,17.70
2016,08,06,19,00,17.70
2016,08,06,19,01,17.70
2016,08,06,19,02,17.60
2016,08,06,19,03,17.60
2016,08,06,19,04,17.60
2016,08,06,19,05,17.60
2016,08,06,19,06,17.60
2016,08,06,19,07,17.50
2016,08,06,19,08,17.50
2016,08,06,19,09,17.50
2016,08,06,19,10,17.50
2016,08,06,19,11,17.40
2016,08,06,19,12,17.40
2016,08,06,19,13,17.40
2016,08,06,19,14,17.40
2016,08,06,19,15,17.30
2016,08,06,19,17,17.30
2016,08,06,19,18,17.30
2016,08,06,19,19,17.30
2016,08,06,19,21,17.30
2016,08,06,19,22,17.30
2016,08,06,19,23,17.20
2016,08,06,19,24,17.20
2016,08,06,19,26,17.20
2016,08,06,19,27,17.10
2016,08,06,19,28,17.10
2016,08,06,19,29,17.10
2016,08,06,19,31,17.00
2016,08,06,19,32,17.00
2016,08,06,19,33,17.00
2016,08,06,19,34,17.00
2016,08,06,19,36,16.90
2016,08,06,19,37,16.90
2016,08,06,19,38,16.90
2016,08,06,19,39,16.90
2016,08,06,19,41,16.90
2016,08,06,19,42,16.90
2016,08,06,19,43,16.90
2016,08,06,19,44,16.80
2016,08,06,19,46,16.80
2016,08,06,19,47,16.80
2016,08,06,19,48,16.80
2016,08,06,19,49,16.80
2016,08,06,19,51,16.70
2016,08,06,19,52,16.70
2016,08,06,19,53,16.70
2016,08,06,19,54,16.70
2016,08,06,19,56,16.70
2016,08,06,19,57,16.70
2016,08,06,19,58,16.70
2016,08,06,19,59,16.70
2016,08,06,20,01,16.60
2016,08,06,20,02,16.60
2016,08,06,20,03,16.40
2016,08,06,20,04,16.40
2016,08,06,20,06,16.40
2016,08,06,20,07,16.40
2016,08,06,20,08,16.30
2016,08,06,20,09,16.30
2016,08,06,20,11,16.30
2016,08,06,20,12,16.20
2016,08,06,20,13,16.20
2016,08,06,20,14,16.20
2016,08,06,20,16,16.10
2016,08,06,20,17,16.10
2016,08,06,20,18,16.10
2016,08,06,20,19,16.10
2016,08,06,20,21,15.90
2016,08,06,20,22,15.90
2016,08,06,20,23,15.80
2016,08,06,20,24,15.80
2016,08,06,20,26,15.80
2016,08,06,20,27,15.80
2016,08,06,20,28,15.80
2016,08,06,20,29,15.80
2016,08,06,20,31,15.70
2016,08,06,20,32,15.70
2016,08,06,20,33,15.70
2016,08,06,20,34,15.60
2016,08,06,20,36,15.60
2016,08,06,20,37,15.60
2016,08,06,20,38,15.60
2016,08,06,20,39,15.50
2016,08,06,20,40,15.50
2016,08,06,20,41,15.50
2016,08,06,20,42,15.50
2016,08,06,20,43,15.50
2016,08,06,20,44,15.50
2016,08,06,20,45,15.50